Regional Weather Roundup
Issued by NWS

Home | Current Version | Previous Version | Graphics & Text | Print | Product List | Glossary On
Versions: 1 2 3 4 5 6 7 8 9 10 11 12 13 14 15 16 17 18 19 20 21 22 23 24 25 26 27 28 29 30 31 32 33 34 35 36 37 38 39 40 41 42 43 44 45 46 47 48 49 50
000
ASUS43 KIND 250409
RWRIN

WEATHER ROUNDUP FOR INDIANA
NATIONAL WEATHER SERVICE INDIANAPOLIS IN
1200 AM EDT WED APR 25 2018

NOTE: "FAIR" INDICATES FEW OR NO CLOUDS BELOW 12,000 FEET WITH NO
SIGNIFICANT WEATHER AND/OR OBSTRUCTIONS TO VISIBILITY.

* - STATION DOES NOT REPORT WEATHER SUCH AS PRECIPITATION OR FOG.

+ - STATION NOT QUALITY CONTROLLED BY THE NATIONAL WEATHER SERVICE.
    USE DATA WITH CAUTION...ESPECIALLY DEWPOINT AND RELATIVE
    HUMIDITY OBSERVATIONS.

INZ001>003-010>013-019-020-250500-
NORTHWEST INDIANA

CITY           SKY/WX    TMP DP  RH WIND       PRES   REMARKS
GARY /AIRPORT/ FAIR      45  43  94 N5        30.02F FOG
KNOX *+        CLOUDY    52  48  87 N5        29.98S
LA PORTE +     FAIR      47  45  91 N7        29.99S
MICHIGAN CITY+ FAIR      43  43 100 CALM      30.00F
MONTICELLO +   CLOUDY    54  49  82 N6        29.97F
RENSSELAER +   FAIR      48  43  81 N6        29.99S
VALPARAISO     FAIR      49  46  90 N6        30.00R

$$

LMZ046-743>745-250500-
SOUTHERN LAKE MICHIGAN

STATION/POSITION TIME  TEMP    WIND        PRES    WAVE
                       AIR SEA DIR/SP/G            HT
                 (UTC) (F)     (DEG/KT/KT) (MB)    (FT)
BURNS HARBOR     0340   42     300/  3/  4 1016.6S
MICHIGAN CITY    0340   43     290/  4/  4   N/A

$$

INZ004-005-014>016-021>024-250500-
NORTH CENTRAL INDIANA

CITY           SKY/WX    TMP DP  RH WIND       PRES   REMARKS
GOSHEN         CLOUDY    52  51  97 N3        29.97S FOG
LOGANSPORT +   CLOUDY    54  50  87 N5        29.97F
ROCHESTER +    MOCLDY    55  52  88 CALM      29.97F
SOUTH BEND     CLOUDY    53  48  83 N5        29.99S
WARSAW +       LGT RAIN  52  52 100 N3        29.97S

$$

INZ006>009-017-018-025>027-250500-
NORTHEAST INDIANA

CITY           SKY/WX    TMP DP  RH WIND       PRES   REMARKS
ANGOLA *+      CLOUDY    52  50  93 CALM      29.96S
AUBURN +       CLOUDY    50  50 100 N7        29.96F
FORT WAYNE     CLOUDY    53  51  93 NE7       29.96S
HUNTINGTON +   CLOUDY    51  50  96 N6        29.96R FOG

$$

INZ028-029-035-036-043>045-051>053-250500-
WEST CENTRAL INDIANA

CITY           SKY/WX    TMP DP  RH WIND       PRES   REMARKS
CRAWFORDSVL +  CLOUDY    52  52 100 NW5       29.97S
GREENCASTLE +  CLOUDY    54  50  87 CALM      29.97F
LAFAYETTE      CLOUDY    55  50  83 N5        29.98S
TERRE HAUTE    FAIR      52  51  97 CALM      29.97F

$$

INZ030>032-037>040-046>048-054>057-064-065-250500-
CENTRAL INDIANA

CITY           SKY/WX    TMP DP  RH WIND       PRES   REMARKS
FISHERS *+     CLOUDY    50  50 100 NW5       29.95S
FRANKFORT +    CLOUDY    57  52  84 N6        29.98S
GREENWOOD *+   CLOUDY    53  51  94 N5        29.96R
INDIANAPOLIS   CLOUDY    53  51  93 NW7       29.95S
-EAGLE CREEK   CLOUDY    54  51  90 N5        29.95S
KOKOMO +       CLOUDY    53  51  93 N6        29.97R
MARION +       CLOUDY    52  51  96 N8        29.96S
MT COMFORT *+  FAIR      52  52 100 N6        29.94F
SHELBYVILLE    CLOUDY    54  51  90 N7        29.93F
ZIONSVILLE +   CLOUDY    52  51  97 N7        29.96S

$$

INZ033-034-041-042-049-050-058-059-250500-
EAST CENTRAL INDIANA

CITY           SKY/WX    TMP DP  RH WIND       PRES   REMARKS
MUNCIE         CLOUDY    54  52  93 N8        29.94S
RICHMOND +     CLOUDY    50  50 100 N7        29.93S FOG

$$

INZ060-061-067>069-081>083-085>088-250500-
SOUTHWEST INDIANA

CITY           SKY/WX    TMP DP  RH WIND       PRES   REMARKS
EVANSVILLE     CLOUDY    56  56 100 W3        29.98F FOG
HUNTINGBURG +  MOCLDY    54  53  97 NW6       29.97S
WASHINGTON +   CLOUDY    55  53  94 NW7       29.97S

$$

INZ062-063-066-070>080-084-089>092-250500-
SOUTH CENTRAL AND SOUTHEAST INDIANA

CITY           SKY/WX    TMP DP  RH WIND       PRES   REMARKS
BATESVILLE +   CLOUDY    52  52 100 MISG      29.92F
BEDFORD +      CLOUDY    54  52  94 CALM      29.94F
BLOOMINGTON    CLOUDY    54  53  97 CALM      29.96S
FRENCH LICK *+ CLOUDY    52 N/A N/A CALM      29.96S
MADISON *+     CLOUDY    54  52  94 NW5       29.94F
NORTH VERNON + CLOUDY    52  52 100 N5        29.94F
SEYMOUR +      CLOUDY    55  55 100 NW5       29.94F

$$





USA.gov is the U.S. government's official web portal to all federal, state and local government web resources and services.